Location: Central Falls
(41.8900°N, 71.3929°W)
Time: 03:28:33
(UTC+00:00)

Vanguard 2 - Pass Details

Date: 06 December 2023
Orbit: 554 x 2918 km, 32.9° (Epoch: 01 March)

Event Time Altitude Azimuth Distance (km) Brightness Sun altitude
Rises 03:59:24 0° 260° (W) 6,707 12.4 -69.1°
Enters shadow 04:04:10 10° 257° (WSW) 5,560 11.9 -69.4°
Reaches altitude 10° 04:04:12 10° 257° (WSW) 5,551 - -69.4°
Maximum altitude 04:19:39 57° 186° (S) 2,424 - -70.3°
Drops below altitude 10° 04:29:36 10° 111° (ESE) 3,708 - -70.5°
Sets 04:32:10 0° 107° (ESE) 4,418 - -70.5°
